Simultaneous Nadir Overpasses (SNOs) Predictions

Prediction of SNOs between METOP-A and TERRA Satellite Orbit:

Table of predicted SNOs for the next 14.0 days since TLE Epoch: 11/13/2021
Index Date (METOP-A) Time (METOP-A) Lat,Lon (METOP-A) SZA (METOP-A ) Date (TERRA) Time (TERRA) Lat,Lon (TERRA) SZA (TERRA ) Distance(km) Time Diff (sec)
1 11/14/2021 19:45:57 81.24, -72.36 102.44 11/14/2021 19:46:37 81.25, -72.40 102.46 1.38 40
2 11/14/2021 20:36:37 -81.24, 95.12 77.55 11/14/2021 20:36:04 -81.25, 95.14 77.55 1.31 33
3 11/17/2021 15:20:15 81.24, -6.05 103.11 11/17/2021 15:20:48 81.25, -6.04 103.12 0.51 33
4 11/17/2021 16:10:55 -81.24, 161.44 76.88 11/17/2021 16:10:15 -81.24, 161.52 76.89 1.51 40
5 11/20/2021 10:54:34 81.25, 60.24 103.72 11/20/2021 10:55:00 81.24, 60.27 103.74 0.78 26
6 11/20/2021 11:45:14 -81.24,-132.25 76.26 11/20/2021 11:44:27 -81.24,-132.14 76.27 1.80 47
7 11/23/2021 06:28:53 81.25, 126.51 104.29 11/23/2021 06:29:12 81.23, 126.54 104.29 2.18 19
8 11/23/2021 07:19:33 -81.24, -65.96 75.69 11/23/2021 07:18:39 -81.23, -65.85 75.71 2.35 54
9 11/26/2021 02:03:10 81.24,-166.87 104.84 11/26/2021 02:03:22 81.24,-166.85 104.84 0.43 12



Historial Predications of SNOs between METOP-A and TERRA
